Zurück zum Katalog

DELTA 1 DEB

AktivLEO
NORAD 10626·DEBRIS·🇺🇸 United States

Gestartet Jul 14, 1977 von Cape Canaveral Space Force Station

Loading…

Nächste Überflüge (nächste 24 Stunden)

TLE

AktuellSource: Space-Track

Epoche: Sep 14, 2026, 14:18 UTC

1 10626U 77065EV  26257.59617835  .00001624  00000-0  36870-3 0  9996
2 10626  29.1791  11.0683 0653003 285.7375  67.2143 13.68659158394875

Verfolge DELTA 1 DEB in Echtzeit mit AllMySat

Download on the App Store